VIR28K EGCC-KMCO

Flight info

Callsign VIR28K
Flight time N/A
Altitude 34000
Route ASMIM L975 WAL L10 PENIL M144 BAGSO DCT DOGAL/M085F360 NATC ELSIR/N0490F360 N402C ALLEX/N0491F380 DCT FOXBO DCT RIFLE DCT HEADI Q97 KALDA Q131 WAALT Y289 BAHAA DCT HIBAC ALYNA4
Aircraft A35K/H-SDE2E3GHIJ3J4J5LM1ORWXY/LB1D1

Departure

Time 2026-05-07 12:27
Airport Manchester Airport (EGCC)

Arrival

Time N/A
Airport Orlando International Airport (KMCO)
Time Latitude Longitude Altitude Speed Heading
2026-05-07 11:52 53.36711 -2.28836 261 ft 0 kts 315°
2026-05-07 12:15 53.36706 -2.28829 262 ft 4 kts 315°
2026-05-07 12:15 53.36687 -2.28796 261 ft 4 kts 315°
2026-05-07 12:15 53.36671 -2.28769 263 ft 3 kts 314°
2026-05-07 12:16 53.36664 -2.28727 261 ft 4 kts 232°
2026-05-07 12:16 53.36672 -2.28713 261 ft 3 kts 224°
2026-05-07 12:16 53.36658 -2.28735 261 ft 0 kts 224°
2026-05-07 12:19 53.36657 -2.28736 261 ft 1 kts 224°
2026-05-07 12:20 53.36647 -2.28752 261 ft 3 kts 222°
2026-05-07 12:20 53.36622 -2.28772 261 ft 4 kts 192°
2026-05-07 12:20 53.36590 -2.28757 261 ft 6 kts 150°
2026-05-07 12:20 53.36554 -2.28708 261 ft 8 kts 138°
2026-05-07 12:21 53.36509 -2.28637 261 ft 10 kts 134°
2026-05-07 12:21 53.36455 -2.28548 261 ft 12 kts 134°
2026-05-07 12:21 53.36408 -2.28425 261 ft 14 kts 117°
2026-05-07 12:21 53.36349 -2.28292 261 ft 15 kts 135°
2026-05-07 12:22 53.36270 -2.28160 261 ft 17 kts 135°
2026-05-07 12:22 53.36189 -2.28026 261 ft 17 kts 137°
2026-05-07 12:22 53.36110 -2.27913 261 ft 15 kts 141°
2026-05-07 12:22 53.36025 -2.27803 261 ft 16 kts 142°
2026-05-07 12:23 53.35921 -2.27731 261 ft 17 kts 173°
2026-05-07 12:23 53.35806 -2.27704 258 ft 18 kts 157°
2026-05-07 12:23 53.35695 -2.27613 253 ft 17 kts 152°
2026-05-07 12:23 53.35595 -2.27490 250 ft 19 kts 141°
2026-05-07 12:24 53.35495 -2.27352 254 ft 18 kts 141°
2026-05-07 12:24 53.35388 -2.27219 252 ft 20 kts 153°
2026-05-07 12:24 53.35242 -2.27219 242 ft 25 kts 192°
2026-05-07 12:24 53.35074 -2.27276 235 ft 21 kts 191°
2026-05-07 12:25 53.34996 -2.27348 235 ft 0 kts 230°
2026-05-07 12:26 53.34988 -2.27364 234 ft 8 kts 230°
2026-05-07 12:26 53.34837 -2.27675 229 ft 67 kts 231°
2026-05-07 12:26 53.34413 -2.28548 233 ft 124 kts 231°
2026-05-07 12:26 53.33764 -2.29894 238 ft 172 kts 230°
2026-05-07 12:27 53.33014 -2.31461 852 ft 171 kts 230°
2026-05-07 12:27 53.32321 -2.33111 1507 ft 178 kts 240°
2026-05-07 12:27 53.32143 -2.35203 2158 ft 191 kts 275°
2026-05-07 12:27 53.32516 -2.37481 2548 ft 215 kts 285°
2026-05-07 12:28 53.32899 -2.39990 2966 ft 227 kts 271°
2026-05-07 12:28 53.32701 -2.42646 3489 ft 237 kts 252°
2026-05-07 12:28 53.32236 -2.45363 4016 ft 249 kts 250°
2026-05-07 12:28 53.31711 -2.48210 4557 ft 262 kts 250°
2026-05-07 12:29 53.31185 -2.51093 5080 ft 256 kts 251°
2026-05-07 12:29 53.30665 -2.53929 5577 ft 256 kts 250°
2026-05-07 12:29 53.30138 -2.56780 6115 ft 257 kts 250°
2026-05-07 12:29 53.29620 -2.59610 6627 ft 258 kts 250°
2026-05-07 12:30 53.29091 -2.62493 7139 ft 261 kts 251°
2026-05-07 12:30 53.28558 -2.65398 7626 ft 263 kts 250°
2026-05-07 12:30 53.28015 -2.68326 8150 ft 265 kts 250°
2026-05-07 12:30 53.27486 -2.71287 8667 ft 267 kts 253°
2026-05-07 12:31 53.27270 -2.74403 9202 ft 274 kts 269°
2026-05-07 12:31 53.27674 -2.77547 9746 ft 281 kts 287°
2026-05-07 12:31 53.28507 -2.80549 10251 ft 289 kts 295°
2026-05-07 12:31 53.29575 -2.83495 10778 ft 303 kts 300°
2026-05-07 12:32 53.30781 -2.86466 11278 ft 314 kts 301°
2026-05-07 12:32 53.32058 -2.89522 11793 ft 325 kts 302°
2026-05-07 12:32 53.33366 -2.92685 12314 ft 336 kts 301°
2026-05-07 12:32 53.34691 -2.95964 12858 ft 345 kts 301°
2026-05-07 12:33 53.37380 -3.02811 13923 ft 362 kts 300°
2026-05-07 12:33 53.38761 -3.06387 14403 ft 370 kts 300°
2026-05-07 12:33 53.40168 -3.10047 14905 ft 376 kts 300°
2026-05-07 12:34 53.41595 -3.13767 15418 ft 383 kts 300°
2026-05-07 12:34 53.43046 -3.17548 15919 ft 389 kts 300°
2026-05-07 12:34 53.44520 -3.21394 16441 ft 394 kts 301°
2026-05-07 12:34 53.46015 -3.25296 16965 ft 399 kts 301°
2026-05-07 12:35 53.47528 -3.29250 17507 ft 404 kts 301°
2026-05-07 12:35 53.49055 -3.33247 18058 ft 410 kts 301°
2026-05-07 12:35 53.50603 -3.37305 18549 ft 415 kts 301°
2026-05-07 12:35 53.52166 -3.41410 19044 ft 420 kts 301°
2026-05-07 12:36 53.53748 -3.45572 19524 ft 425 kts 301°
2026-05-07 12:36 53.55345 -3.49780 20031 ft 429 kts 301°
2026-05-07 12:36 53.56959 -3.54041 20511 ft 434 kts 301°
2026-05-07 12:36 53.58585 -3.58340 21029 ft 438 kts 301°
2026-05-07 12:37 53.60141 -3.62771 21551 ft 440 kts 294°
2026-05-07 12:37 53.61260 -3.67554 22082 ft 441 kts 283°
2026-05-07 12:37 53.61882 -3.72546 22621 ft 442 kts 276°
2026-05-07 12:37 53.62253 -3.77692 23167 ft 444 kts 273°
2026-05-07 12:38 53.62482 -3.82899 23716 ft 446 kts 271°
2026-05-07 12:38 53.62650 -3.88137 24169 ft 449 kts 270°
2026-05-07 12:38 53.62806 -3.93407 24654 ft 452 kts 270°
2026-05-07 12:38 53.62978 -3.98704 25142 ft 454 kts 271°
2026-05-07 12:39 53.63164 -4.04022 25632 ft 456 kts 271°
2026-05-07 12:39 53.63359 -4.09367 26132 ft 457 kts 271°
2026-05-07 12:39 53.63561 -4.14728 26645 ft 459 kts 271°
2026-05-07 12:39 53.63765 -4.20087 27169 ft 460 kts 271°
2026-05-07 12:40 53.63968 -4.25467 27700 ft 460 kts 271°
2026-05-07 12:40 53.64171 -4.30853 28241 ft 460 kts 271°
2026-05-07 12:40 53.64370 -4.36167 28791 ft 460 kts 271°
2026-05-07 12:40 53.64567 -4.41534 29333 ft 459 kts 271°
2026-05-07 12:41 53.64764 -4.46941 29921 ft 457 kts 271°
2026-05-07 12:41 53.64953 -4.52219 30427 ft 454 kts 271°
2026-05-07 12:41 53.65139 -4.57518 30926 ft 451 kts 270°
2026-05-07 12:41 53.65321 -4.62780 31429 ft 448 kts 270°
2026-05-07 12:42 53.65499 -4.67996 31950 ft 444 kts 270°
2026-05-07 12:42 53.65674 -4.73165 32471 ft 439 kts 270°
2026-05-07 12:42 53.65845 -4.78267 32994 ft 433 kts 269°
2026-05-07 12:42 53.66012 -4.83313 33536 ft 427 kts 269°
2026-05-07 12:43 53.66176 -4.88259 34070 ft 419 kts 269°
2026-05-07 12:43 53.66336 -4.93121 34537 ft 411 kts 269°
2026-05-07 12:43 53.66489 -4.97870 34982 ft 402 kts 269°
2026-05-07 12:43 53.66638 -5.02573 35220 ft 399 kts 269°
2026-05-07 12:44 53.66782 -5.07254 35351 ft 399 kts 269°
2026-05-07 12:44 53.66924 -5.11930 35446 ft 400 kts 269°
2026-05-07 12:44 53.67208 -5.21306 35626 ft 401 kts 269°
2026-05-07 12:45 53.67344 -5.25988 35747 ft 400 kts 269°
2026-05-07 12:45 53.67476 -5.30681 35837 ft 401 kts 269°
2026-05-07 12:45 53.67735 -5.40077 36004 ft 401 kts 269°
2026-05-07 12:46 53.67989 -5.49415 36160 ft 401 kts 269°
2026-05-07 12:46 53.68469 -5.58836 36320 ft 404 kts 274°
2026-05-07 12:47 53.69242 -5.68235 36463 ft 404 kts 275°
2026-05-07 12:47 53.69996 -5.77648 36591 ft 405 kts 274°
2026-05-07 12:48 53.70688 -5.87080 36720 ft 405 kts 274°
2026-05-07 12:48 53.71346 -5.96469 36850 ft 405 kts 274°
2026-05-07 12:49 53.71998 -6.05931 36948 ft 406 kts 274°
2026-05-07 12:49 53.72645 -6.15394 37072 ft 406 kts 274°
2026-05-07 12:50 53.73287 -6.24871 37184 ft 406 kts 274°
2026-05-07 12:50 53.73922 -6.34349 37302 ft 406 kts 274°
2026-05-07 12:51 53.74550 -6.43853 37393 ft 406 kts 273°
2026-05-07 12:51 53.75171 -6.53374 37394 ft 409 kts 273°
2026-05-07 12:52 53.75786 -6.62915 37393 ft 413 kts 273°
2026-05-07 12:52 53.76403 -6.72596 37386 ft 416 kts 273°
2026-05-07 12:53 53.77017 -6.82362 37393 ft 420 kts 273°
2026-05-07 12:53 53.77630 -6.92251 37379 ft 425 kts 273°
2026-05-07 12:54 53.78241 -7.02239 37380 ft 429 kts 273°
2026-05-07 12:54 53.78851 -7.12349 37376 ft 435 kts 273°
2026-05-07 12:55 53.79459 -7.22576 37371 ft 440 kts 273°
2026-05-07 12:55 53.80067 -7.32962 37380 ft 446 kts 272°
2026-05-07 12:56 53.80674 -7.43484 37364 ft 453 kts 272°
2026-05-07 12:56 53.81281 -7.54176 37358 ft 459 kts 272°
2026-05-07 12:57 53.81883 -7.64938 37359 ft 466 kts 272°
2026-05-07 12:57 53.82487 -7.75903 37587 ft 467 kts 272°
2026-05-07 12:58 53.82785 -7.81343 37911 ft 462 kts 272°
2026-05-07 12:58 53.83078 -7.86756 38249 ft 458 kts 272°
2026-05-07 12:58 53.83364 -7.92100 38576 ft 453 kts 272°
2026-05-07 12:58 53.83645 -7.97390 38828 ft 448 kts 272°
2026-05-07 12:59 53.83919 -8.02609 39100 ft 442 kts 272°
2026-05-07 12:59 53.84188 -8.07760 39358 ft 436 kts 272°
2026-05-07 12:59 53.84449 -8.12831 39620 ft 429 kts 272°
2026-05-07 12:59 53.84705 -8.17833 39769 ft 425 kts 272°
2026-05-07 13:00 53.85205 -8.27805 39785 ft 424 kts 272°
2026-05-07 13:00 53.85694 -8.37687 39782 ft 424 kts 272°
2026-05-07 13:01 53.86180 -8.47634 39783 ft 423 kts 272°
2026-05-07 13:01 53.86657 -8.57563 39783 ft 422 kts 272°
2026-05-07 13:02 53.87126 -8.67489 39782 ft 422 kts 272°
2026-05-07 13:02 53.87585 -8.77381 39745 ft 422 kts 272°
2026-05-07 13:03 53.87962 -8.85681 39509 ft 429 kts 272°
2026-05-07 13:03 53.88190 -8.90773 39298 ft 436 kts 271°
2026-05-07 13:03 53.88419 -8.95939 39087 ft 443 kts 271°
2026-05-07 13:04 53.88649 -9.01182 38876 ft 450 kts 271°
2026-05-07 13:04 53.88882 -9.06534 38670 ft 458 kts 271°
2026-05-07 13:04 53.89117 -9.11957 38414 ft 466 kts 271°
2026-05-07 13:04 53.89354 -9.17500 38134 ft 473 kts 271°
2026-05-07 13:05 53.89590 -9.23066 37942 ft 473 kts 271°
2026-05-07 13:05 53.89825 -9.28611 37921 ft 472 kts 271°
2026-05-07 13:05 53.90286 -9.39717 37917 ft 473 kts 271°
2026-05-07 13:06 53.90734 -9.50843 37921 ft 479 kts 271°
2026-05-07 13:06 53.91177 -9.62148 37930 ft 482 kts 271°
2026-05-07 13:07 53.91614 -9.73527 37924 ft 484 kts 271°
2026-05-07 13:07 53.92042 -9.84944 37922 ft 485 kts 271°
2026-05-07 13:08 53.92459 -9.96388 37928 ft 486 kts 270°
2026-05-07 13:08 53.92865 -10.07830 37926 ft 485 kts 271°
2026-05-07 13:09 53.93260 -10.19240 37923 ft 484 kts 270°
2026-05-07 13:09 53.93643 -10.30643 37922 ft 484 kts 270°
2026-05-07 13:10 53.94015 -10.42047 37923 ft 484 kts 270°
2026-05-07 13:10 53.94376 -10.53461 37923 ft 484 kts 270°
2026-05-07 13:11 53.94726 -10.64855 37921 ft 483 kts 270°
2026-05-07 13:11 53.95063 -10.76171 37921 ft 483 kts 270°
2026-05-07 13:12 53.95391 -10.87553 37921 ft 483 kts 270°
2026-05-07 13:12 53.95709 -10.98935 37920 ft 482 kts 270°
2026-05-07 13:13 53.96015 -11.10321 37960 ft 481 kts 270°
2026-05-07 13:13 53.96164 -11.15981 38091 ft 479 kts 270°
2026-05-07 13:13 53.96310 -11.21622 38216 ft 477 kts 270°
2026-05-07 13:14 53.96452 -11.27241 38371 ft 476 kts 270°
2026-05-07 13:14 53.96591 -11.32863 38527 ft 474 kts 270°
2026-05-07 13:14 53.96727 -11.38449 38648 ft 473 kts 270°
2026-05-07 13:14 53.96860 -11.44025 38759 ft 472 kts 270°
2026-05-07 13:15 53.96990 -11.49584 38867 ft 471 kts 270°
2026-05-07 13:15 53.97117 -11.55128 38975 ft 469 kts 270°
2026-05-07 13:15 53.97241 -11.60654 39084 ft 468 kts 270°
2026-05-07 13:15 53.97363 -11.66191 39205 ft 467 kts 270°
2026-05-07 13:16 53.97480 -11.71618 39308 ft 465 kts 270°
2026-05-07 13:16 53.97596 -11.77108 39424 ft 464 kts 270°
2026-05-07 13:16 53.97819 -11.88023 39643 ft 461 kts 270°
2026-05-07 13:17 53.97926 -11.93441 39762 ft 459 kts 270°
2026-05-07 13:17 53.98030 -11.98864 39865 ft 457 kts 270°
2026-05-07 13:17 53.98132 -12.04241 39979 ft 455 kts 270°
2026-05-07 13:17 53.98230 -12.09604 40092 ft 453 kts 270°
2026-05-07 13:18 53.98326 -12.14942 40198 ft 450 kts 270°
2026-05-07 13:18 53.98419 -12.20250 40325 ft 448 kts 270°
2026-05-07 13:18 53.98509 -12.25516 40438 ft 445 kts 270°
2026-05-07 13:18 53.98596 -12.30763 40552 ft 443 kts 270°
2026-05-07 13:19 53.98681 -12.35981 40677 ft 440 kts 270°
2026-05-07 13:19 53.98762 -12.41171 40765 ft 437 kts 270°
2026-05-07 13:19 53.98917 -12.51398 40806 ft 435 kts 270°
2026-05-07 13:20 53.99063 -12.61665 40802 ft 434 kts 270°
2026-05-07 13:20 53.99200 -12.71911 40801 ft 433 kts 270°
2026-05-07 13:21 53.99328 -12.82114 40813 ft 432 kts 270°
2026-05-07 13:21 53.99448 -12.92330 40860 ft 431 kts 270°
2026-05-07 13:22 53.99559 -13.02515 40927 ft 430 kts 270°
2026-05-07 13:22 53.99660 -13.12683 40928 ft 431 kts 270°
2026-05-07 13:23 53.99754 -13.22878 40933 ft 431 kts 269°
2026-05-07 13:23 53.99839 -13.33098 40934 ft 432 kts 270°
2026-05-07 13:24 53.99916 -13.43319 40936 ft 433 kts 269°
2026-05-07 13:24 53.99984 -13.53580 40935 ft 434 kts 269°
2026-05-07 13:25 54.00043 -13.63774 40936 ft 435 kts 269°
2026-05-07 13:25 54.00094 -13.74055 40936 ft 436 kts 269°
2026-05-07 13:26 54.00136 -13.84358 40945 ft 437 kts 269°
2026-05-07 13:26 54.00170 -13.94714 40940 ft 438 kts 269°
2026-05-07 13:27 54.00194 -14.05089 40949 ft 439 kts 269°
2026-05-07 13:27 54.00210 -14.15497 40946 ft 441 kts 269°
2026-05-07 13:28 54.00217 -14.25938 40951 ft 442 kts 269°
2026-05-07 13:28 54.00215 -14.36336 40936 ft 444 kts 269°
2026-05-07 13:29 54.00203 -14.46850 40954 ft 445 kts 269°
2026-05-07 13:29 54.00183 -14.57413 40953 ft 447 kts 269°
2026-05-07 13:30 54.00153 -14.68017 40959 ft 449 kts 269°
2026-05-07 13:30 54.00113 -14.78646 40959 ft 451 kts 268°
2026-05-07 13:31 54.00065 -14.89258 40964 ft 452 kts 269°
2026-05-07 13:31 54.00006 -14.99975 40955 ft 454 kts 269°
2026-05-07 13:32 54.00105 -15.10737 40957 ft 456 kts 271°
2026-05-07 13:32 54.00377 -15.21542 40965 ft 458 kts 271°
2026-05-07 13:33 54.00627 -15.32394 40970 ft 460 kts 271°
2026-05-07 13:33 54.00832 -15.43286 40975 ft 462 kts 271°
2026-05-07 13:34 54.01100 -15.59727 40969 ft 465 kts 271°
2026-05-07 13:35 54.01267 -15.70741 40971 ft 467 kts 271°
2026-05-07 13:35 54.01427 -15.81806 40979 ft 469 kts 270°
2026-05-07 13:36 54.01576 -15.92828 39710 ft 470 kts 271°
2026-05-07 13:36 54.01646 -15.98351 41170 ft 464 kts 270°
2026-05-07 13:36 54.01715 -16.03843 41151 ft 466 kts 270°
2026-05-07 13:36 54.01780 -16.09363 41002 ft 468 kts 270°
2026-05-07 13:37 54.01843 -16.14889 40980 ft 467 kts 270°
2026-05-07 13:37 54.01962 -16.25925 40984 ft 466 kts 270°
2026-05-07 13:38 54.02070 -16.36919 40982 ft 464 kts 270°
2026-05-07 13:38 54.02167 -16.47816 40989 ft 462 kts 270°
2026-05-07 13:39 54.02255 -16.58737 40989 ft 462 kts 270°
2026-05-07 13:39 54.02333 -16.69693 41000 ft 464 kts 270°
2026-05-07 13:40 54.02401 -16.80679 40990 ft 465 kts 270°
2026-05-07 13:40 54.02460 -16.91718 40996 ft 467 kts 270°
2026-05-07 13:41 54.02508 -17.02781 41005 ft 469 kts 270°
2026-05-07 13:41 54.02546 -17.13887 40998 ft 470 kts 270°
2026-05-07 13:42 54.02575 -17.25023 41014 ft 472 kts 270°
2026-05-07 13:42 54.02593 -17.36119 41008 ft 472 kts 270°
2026-05-07 13:43 54.02600 -17.47279 41010 ft 472 kts 270°
2026-05-07 13:43 54.02598 -17.58427 41022 ft 471 kts 269°
2026-05-07 13:44 54.02585 -17.69582 41018 ft 472 kts 270°
2026-05-07 13:44 54.02562 -17.80740 41013 ft 472 kts 270°
2026-05-07 13:45 54.02528 -17.91897 41019 ft 472 kts 269°
2026-05-07 13:45 54.02484 -18.03046 41031 ft 472 kts 269°
2026-05-07 13:46 54.02430 -18.14204 41025 ft 472 kts 269°
2026-05-07 13:46 54.02365 -18.25299 41029 ft 472 kts 269°
2026-05-07 13:47 54.02290 -18.36470 41028 ft 472 kts 269°
2026-05-07 13:47 54.02205 -18.47652 41030 ft 472 kts 269°
2026-05-07 13:48 54.02109 -18.58826 41028 ft 473 kts 269°
2026-05-07 13:48 54.02003 -18.70004 41042 ft 472 kts 269°
2026-05-07 13:49 54.01886 -18.81193 41039 ft 473 kts 269°
2026-05-07 13:49 54.01759 -18.92373 41050 ft 473 kts 269°
2026-05-07 13:50 54.01623 -19.03481 41046 ft 473 kts 269°
2026-05-07 13:50 54.01475 -19.14653 41048 ft 472 kts 269°
2026-05-07 13:51 54.01318 -19.25799 41056 ft 472 kts 269°
2026-05-07 13:51 54.01149 -19.36968 41056 ft 472 kts 269°
2026-05-07 13:52 54.00971 -19.48127 41056 ft 472 kts 269°
2026-05-07 13:52 54.00815 -19.57414 41057 ft 473 kts 269°
2026-05-07 13:53 54.00617 -19.68581 41057 ft 473 kts 269°
2026-05-07 13:53 54.00410 -19.79746 41059 ft 473 kts 269°
2026-05-07 13:54 54.00191 -19.90919 41073 ft 473 kts 269°
2026-05-07 13:54 53.99960 -20.02084 41064 ft 473 kts 268°
2026-05-07 13:55 53.99408 -20.13244 41079 ft 473 kts 264°
2026-05-07 13:55 53.98666 -20.24359 41070 ft 474 kts 264°
2026-05-07 13:56 53.97950 -20.35495 41081 ft 473 kts 265°
2026-05-07 13:56 53.97269 -20.46624 41081 ft 474 kts 265°
2026-05-07 13:57 53.96593 -20.57761 41076 ft 474 kts 265°
2026-05-07 13:57 53.95906 -20.68908 41084 ft 474 kts 265°
2026-05-07 13:58 53.95206 -20.80053 41086 ft 474 kts 265°
2026-05-07 13:58 53.94501 -20.91114 41086 ft 474 kts 265°
2026-05-07 13:59 53.93778 -21.02262 41090 ft 475 kts 265°
2026-05-07 13:59 53.93046 -21.13407 41090 ft 475 kts 265°
2026-05-07 14:00 53.92304 -21.24544 41098 ft 475 kts 265°
2026-05-07 14:00 53.91551 -21.35679 41100 ft 475 kts 265°
2026-05-07 14:01 53.90788 -21.46803 41096 ft 475 kts 264°
2026-05-07 14:01 53.90020 -21.57863 41100 ft 475 kts 265°
2026-05-07 14:02 53.89236 -21.68993 41103 ft 476 kts 264°
2026-05-07 14:02 53.88439 -21.80147 41102 ft 476 kts 264°
2026-05-07 14:03 53.87632 -21.91299 41108 ft 476 kts 264°
2026-05-07 14:03 53.86816 -22.02430 41108 ft 476 kts 264°
2026-05-07 14:04 53.85995 -22.13486 41110 ft 476 kts 264°
2026-05-07 14:04 53.85158 -22.24613 41110 ft 476 kts 264°
2026-05-07 14:05 53.84311 -22.35744 41111 ft 476 kts 264°
2026-05-07 14:05 53.83454 -22.46847 41111 ft 476 kts 264°
2026-05-07 14:06 53.82587 -22.57947 41111 ft 476 kts 264°
2026-05-07 14:06 53.81709 -22.69055 41113 ft 476 kts 264°
2026-05-07 14:07 53.80820 -22.80181 41121 ft 477 kts 264°
2026-05-07 14:07 53.79926 -22.91218 41121 ft 477 kts 264°
2026-05-07 14:08 53.79016 -23.02332 41127 ft 477 kts 264°
2026-05-07 14:08 53.78095 -23.13444 41128 ft 477 kts 264°
2026-05-07 14:09 53.77164 -23.24548 41131 ft 477 kts 264°
2026-05-07 14:09 53.76223 -23.35655 41129 ft 477 kts 264°
2026-05-07 14:10 53.75270 -23.46767 41135 ft 477 kts 264°
2026-05-07 14:10 53.74313 -23.57807 41118 ft 477 kts 263°
2026-05-07 14:11 53.73339 -23.68900 41141 ft 478 kts 264°
2026-05-07 14:11 53.72355 -23.80008 41141 ft 478 kts 263°
2026-05-07 14:12 53.71361 -23.91103 41140 ft 478 kts 263°
2026-05-07 14:12 53.70357 -24.02184 41143 ft 477 kts 263°
2026-05-07 14:13 53.69349 -24.13193 41135 ft 477 kts 263°
2026-05-07 14:13 53.68325 -24.24268 41149 ft 478 kts 263°
2026-05-07 14:14 53.67289 -24.35353 41150 ft 478 kts 263°
2026-05-07 14:14 53.66243 -24.46431 41151 ft 478 kts 263°
2026-05-07 14:15 53.65185 -24.57522 41151 ft 478 kts 263°
2026-05-07 14:15 53.64119 -24.68580 41156 ft 478 kts 263°
2026-05-07 14:16 53.63041 -24.79655 41160 ft 479 kts 263°
2026-05-07 14:16 53.61959 -24.90665 41160 ft 479 kts 263°
2026-05-07 14:17 53.60859 -25.01742 41161 ft 479 kts 263°
2026-05-07 14:17 53.59751 -25.12785 41161 ft 479 kts 263°
2026-05-07 14:18 53.58630 -25.23859 41155 ft 479 kts 263°
2026-05-07 14:18 53.57500 -25.34918 41171 ft 480 kts 263°
2026-05-07 14:19 53.56359 -25.45971 41171 ft 480 kts 263°
2026-05-07 14:19 53.55206 -25.57040 41174 ft 480 kts 263°
2026-05-07 14:20 53.54053 -25.68007 41151 ft 480 kts 263°
2026-05-07 14:20 53.52881 -25.79056 41173 ft 480 kts 263°
2026-05-07 14:21 53.51697 -25.90107 41176 ft 480 kts 263°
2026-05-07 14:21 53.50504 -26.01143 41176 ft 480 kts 263°
2026-05-07 14:22 53.49300 -26.12181 41177 ft 480 kts 263°
2026-05-07 14:22 53.48094 -26.23137 41175 ft 480 kts 263°
2026-05-07 14:23 53.46872 -26.34136 41187 ft 479 kts 263°
2026-05-07 14:23 53.45639 -26.45152 41187 ft 479 kts 263°
2026-05-07 14:24 53.44397 -26.56143 41185 ft 479 kts 263°
2026-05-07 14:24 53.43145 -26.67129 41187 ft 479 kts 262°
2026-05-07 14:25 53.41882 -26.78108 41188 ft 479 kts 263°
2026-05-07 14:25 53.40618 -26.89013 41191 ft 479 kts 263°
2026-05-07 14:26 53.39338 -26.99961 41189 ft 479 kts 262°
2026-05-07 14:26 53.38046 -27.10913 41190 ft 479 kts 262°
2026-05-07 14:27 53.36746 -27.21850 41199 ft 479 kts 262°
2026-05-07 14:27 53.35433 -27.32801 41201 ft 479 kts 262°
2026-05-07 14:28 53.34112 -27.43729 41201 ft 479 kts 262°
2026-05-07 14:28 53.32781 -27.54650 41201 ft 479 kts 262°
2026-05-07 14:29 53.31438 -27.65578 41206 ft 479 kts 262°
2026-05-07 14:29 53.30087 -27.76484 41195 ft 479 kts 262°
2026-05-07 14:30 53.28735 -27.87314 41211 ft 479 kts 262°
2026-05-07 14:30 53.27365 -27.98209 41213 ft 479 kts 262°
2026-05-07 14:31 53.25985 -28.09087 41219 ft 479 kts 262°
2026-05-07 14:31 53.24594 -28.19973 41218 ft 479 kts 262°
2026-05-07 14:32 53.23194 -28.30836 41224 ft 479 kts 262°
2026-05-07 14:32 53.21786 -28.41684 41212 ft 479 kts 262°
2026-05-07 14:33 53.20377 -28.52462 41227 ft 479 kts 262°
2026-05-07 14:33 53.18947 -28.63316 41225 ft 479 kts 262°
2026-05-07 14:34 53.17506 -28.74164 41202 ft 479 kts 262°
2026-05-07 14:34 53.16057 -28.84994 41226 ft 479 kts 262°
2026-05-07 14:35 53.14599 -28.95815 41238 ft 478 kts 262°
2026-05-07 14:35 53.13131 -29.06626 41238 ft 478 kts 262°
2026-05-07 14:36 53.11654 -29.17431 41238 ft 478 kts 261°
2026-05-07 14:36 53.10166 -29.28224 41229 ft 478 kts 262°
2026-05-07 14:37 53.08669 -29.39008 41244 ft 478 kts 262°
2026-05-07 14:37 53.06421 -29.55066 41244 ft 477 kts 261°
2026-05-07 14:38 53.04901 -29.65828 41247 ft 478 kts 261°
2026-05-07 14:38 53.03372 -29.76578 41228 ft 477 kts 261°
2026-05-07 14:39 53.01836 -29.87288 41246 ft 475 kts 261°
2026-05-07 14:39 53.00296 -29.97966 41253 ft 474 kts 261°
2026-05-07 14:40 52.98916 -30.08644 41259 ft 472 kts 265°
2026-05-07 14:40 52.97874 -30.19315 41251 ft 471 kts 266°
2026-05-07 14:41 52.96823 -30.30056 41254 ft 471 kts 265°
2026-05-07 14:41 52.95900 -30.38960 41257 ft 470 kts 265°
2026-05-07 14:42 52.94753 -30.49638 41263 ft 470 kts 264°
2026-05-07 14:42 52.93590 -30.60317 41263 ft 470 kts 264°
2026-05-07 14:43 52.92419 -30.70984 41265 ft 470 kts 264°
2026-05-07 14:43 52.91241 -30.81640 41262 ft 470 kts 264°
2026-05-07 14:44 52.90052 -30.92307 41264 ft 470 kts 264°
2026-05-07 14:44 52.88860 -31.02904 41268 ft 470 kts 264°
2026-05-07 14:45 52.87654 -31.13546 41276 ft 470 kts 264°
2026-05-07 14:45 52.86438 -31.24184 41277 ft 470 kts 264°
2026-05-07 14:46 52.85213 -31.34814 41270 ft 470 kts 264°
2026-05-07 14:46 52.83976 -31.45456 41267 ft 471 kts 264°
2026-05-07 14:47 52.82728 -31.56105 41276 ft 471 kts 264°
2026-05-07 14:47 52.81478 -31.66683 41276 ft 471 kts 264°
2026-05-07 14:48 52.80211 -31.77324 41276 ft 472 kts 263°
2026-05-07 14:48 52.78934 -31.87953 41280 ft 472 kts 263°
2026-05-07 14:49 52.77646 -31.98597 41282 ft 473 kts 263°
2026-05-07 14:49 52.76347 -32.09248 41275 ft 473 kts 263°
2026-05-07 14:50 52.75036 -32.19900 41277 ft 473 kts 263°
2026-05-07 14:50 52.73719 -32.30529 41274 ft 473 kts 263°
2026-05-07 14:51 52.72393 -32.41141 41284 ft 473 kts 263°
2026-05-07 14:51 52.71056 -32.51763 41280 ft 473 kts 263°
2026-05-07 14:52 52.69717 -32.62313 41283 ft 473 kts 263°
2026-05-07 14:52 52.68361 -32.72916 41285 ft 473 kts 263°
2026-05-07 14:53 52.66996 -32.83523 41257 ft 473 kts 263°
2026-05-07 14:53 52.65620 -32.94124 41287 ft 474 kts 263°
2026-05-07 14:54 52.64232 -33.04750 41290 ft 475 kts 263°
2026-05-07 14:54 52.62829 -33.15380 41290 ft 475 kts 263°
2026-05-07 14:55 52.61421 -33.25998 41289 ft 474 kts 263°
2026-05-07 14:55 52.60014 -33.36523 41276 ft 474 kts 263°
2026-05-07 14:56 52.58584 -33.47142 41294 ft 475 kts 263°
2026-05-07 14:56 52.57145 -33.57755 41294 ft 475 kts 263°
2026-05-07 14:57 52.55696 -33.68361 41287 ft 475 kts 263°
2026-05-07 14:57 52.54239 -33.78951 41290 ft 475 kts 262°
2026-05-07 14:58 52.52771 -33.89535 41290 ft 475 kts 263°
2026-05-07 14:58 52.51298 -34.00086 41294 ft 473 kts 263°
2026-05-07 14:59 52.49828 -34.10543 41298 ft 473 kts 262°
2026-05-07 14:59 52.48338 -34.21074 41298 ft 473 kts 262°
2026-05-07 15:00 52.46842 -34.31587 41306 ft 473 kts 262°
2026-05-07 15:00 52.45333 -34.42098 41303 ft 473 kts 262°
2026-05-07 15:01 52.43816 -34.52586 41301 ft 472 kts 262°
2026-05-07 15:01 52.42292 -34.63060 41300 ft 472 kts 262°
2026-05-07 15:02 52.40761 -34.73517 41312 ft 472 kts 262°
2026-05-07 15:02 52.39232 -34.83886 41270 ft 472 kts 262°
2026-05-07 15:03 52.37685 -34.94302 41305 ft 470 kts 262°
2026-05-07 15:03 52.36132 -35.04695 41306 ft 469 kts 262°
2026-05-07 15:04 52.34574 -35.15058 41306 ft 469 kts 262°
2026-05-07 15:04 52.33005 -35.25435 41306 ft 469 kts 262°
2026-05-07 15:05 52.31429 -35.35782 41286 ft 469 kts 262°
2026-05-07 15:05 52.29843 -35.46120 41308 ft 469 kts 262°
2026-05-07 15:06 52.28249 -35.56451 41314 ft 468 kts 262°
2026-05-07 15:06 52.26649 -35.66753 41311 ft 469 kts 262°
2026-05-07 15:07 52.25039 -35.77060 41309 ft 469 kts 262°
2026-05-07 15:07 52.23418 -35.87365 41302 ft 469 kts 262°
2026-05-07 15:08 52.21798 -35.97607 41308 ft 469 kts 261°
2026-05-07 15:08 52.20159 -36.07899 41309 ft 469 kts 261°
2026-05-07 15:09 52.18509 -36.18197 41311 ft 469 kts 261°
2026-05-07 15:09 52.16852 -36.28469 41312 ft 468 kts 261°
2026-05-07 15:10 52.15191 -36.38714 41313 ft 468 kts 261°
2026-05-07 15:10 52.13522 -36.48954 41314 ft 468 kts 261°
2026-05-07 15:11 52.11838 -36.59209 41314 ft 468 kts 261°
2026-05-07 15:11 52.10158 -36.69381 41311 ft 468 kts 261°
2026-05-07 15:12 52.08459 -36.79608 41317 ft 468 kts 261°
2026-05-07 15:12 52.06751 -36.89827 41317 ft 468 kts 260°
2026-05-07 15:13 52.05032 -37.00044 41316 ft 468 kts 260°
2026-05-07 15:13 52.03307 -37.10240 41316 ft 468 kts 260°
2026-05-07 15:14 52.01571 -37.20448 41312 ft 468 kts 260°
2026-05-07 15:14 51.99837 -37.30576 41311 ft 468 kts 260°
2026-05-07 15:15 51.98085 -37.40757 41315 ft 468 kts 260°
2026-05-07 15:15 51.96325 -37.50929 41314 ft 468 kts 260°
2026-05-07 15:16 51.94555 -37.61097 41313 ft 469 kts 260°
2026-05-07 15:16 51.92775 -37.71258 41313 ft 468 kts 259°
2026-05-07 15:17 51.90992 -37.81381 41307 ft 467 kts 259°
2026-05-07 15:17 51.89200 -37.91501 41316 ft 467 kts 259°
2026-05-07 15:18 51.87410 -38.01556 41302 ft 467 kts 259°
2026-05-07 15:18 51.85604 -38.11645 41313 ft 467 kts 259°
2026-05-07 15:19 51.83784 -38.21749 41303 ft 467 kts 259°
2026-05-07 15:19 51.81957 -38.31838 41302 ft 467 kts 259°
2026-05-07 15:20 51.80123 -38.41912 41303 ft 467 kts 258°
2026-05-07 15:20 51.78290 -38.51924 41308 ft 468 kts 258°
2026-05-07 15:21 51.76435 -38.61996 41305 ft 468 kts 258°
2026-05-07 15:21 51.74572 -38.72064 41307 ft 468 kts 258°
2026-05-07 15:22 51.72703 -38.82106 41303 ft 467 kts 258°
2026-05-07 15:22 51.70827 -38.92129 41301 ft 467 kts 258°
2026-05-07 15:23 51.68942 -39.02148 41303 ft 467 kts 258°
2026-05-07 15:23 51.67049 -39.12158 41303 ft 467 kts 258°
2026-05-07 15:24 51.65149 -39.22151 41286 ft 466 kts 257°
2026-05-07 15:24 51.63257 -39.32051 41301 ft 465 kts 257°
2026-05-07 15:25 51.61345 -39.42001 41302 ft 465 kts 257°
2026-05-07 15:25 51.59427 -39.51931 41295 ft 465 kts 257°
2026-05-07 15:26 51.57501 -39.61852 41296 ft 465 kts 257°
2026-05-07 15:26 51.55564 -39.71778 41297 ft 465 kts 257°
2026-05-07 15:27 51.53618 -39.81695 41296 ft 465 kts 256°
2026-05-07 15:27 51.51664 -39.91606 41297 ft 465 kts 256°
2026-05-07 15:28 51.49911 -40.01568 41299 ft 462 kts 263°
2026-05-07 15:28 51.48756 -40.11710 41294 ft 461 kts 264°
2026-05-07 15:29 51.47704 -40.21784 41284 ft 461 kts 264°
2026-05-07 15:29 51.46648 -40.31941 41289 ft 462 kts 264°
2026-05-07 15:30 51.45753 -40.40397 41289 ft 462 kts 264°
2026-05-07 15:30 51.44664 -40.50548 41290 ft 462 kts 264°
2026-05-07 15:31 51.43564 -40.60690 41284 ft 462 kts 264°
2026-05-07 15:31 51.42455 -40.70836 41267 ft 462 kts 263°
2026-05-07 15:32 51.41337 -40.80982 41283 ft 463 kts 263°
2026-05-07 15:32 51.40207 -40.91151 41280 ft 463 kts 263°
2026-05-07 15:33 51.39069 -41.01303 41277 ft 463 kts 263°
2026-05-07 15:33 51.37930 -41.11381 41277 ft 463 kts 263°
2026-05-07 15:34 51.36775 -41.21528 41277 ft 463 kts 263°
2026-05-07 15:34 51.35610 -41.31681 41277 ft 464 kts 263°
2026-05-07 15:35 51.34435 -41.41833 41274 ft 464 kts 262°
2026-05-07 15:35 51.33252 -41.51978 41276 ft 464 kts 262°
2026-05-07 15:36 51.32059 -41.62115 41273 ft 464 kts 262°
2026-05-07 15:36 51.30859 -41.72241 41274 ft 464 kts 262°
2026-05-07 15:37 51.29650 -41.82372 41269 ft 464 kts 262°
2026-05-07 15:37 51.28430 -41.92514 41269 ft 465 kts 262°
2026-05-07 15:38 51.27200 -42.02652 41271 ft 465 kts 262°
2026-05-07 15:38 51.25970 -42.12718 41272 ft 465 kts 262°
2026-05-07 15:39 51.24723 -42.22843 41271 ft 465 kts 262°
2026-05-07 15:39 51.23466 -42.32972 41272 ft 465 kts 262°
2026-05-07 15:40 51.22202 -42.43092 41270 ft 465 kts 261°
2026-05-07 15:40 51.20929 -42.53193 41270 ft 464 kts 261°
2026-05-07 15:41 51.19649 -42.63285 41269 ft 464 kts 261°
2026-05-07 15:41 51.18361 -42.73368 41267 ft 464 kts 261°
2026-05-07 15:42 51.17064 -42.83443 41259 ft 464 kts 261°
2026-05-07 15:42 51.15766 -42.93463 41265 ft 465 kts 261°
2026-05-07 15:43 51.14447 -43.03564 41265 ft 465 kts 261°
2026-05-07 15:43 51.13120 -43.13650 41266 ft 465 kts 261°
2026-05-07 15:44 51.11786 -43.23721 41262 ft 465 kts 261°
2026-05-07 15:44 51.10443 -43.33791 41255 ft 465 kts 260°
2026-05-07 15:45 51.09100 -43.43798 41268 ft 465 kts 260°
2026-05-07 15:45 51.07740 -43.53849 41262 ft 465 kts 260°
2026-05-07 15:46 51.05684 -43.68914 41260 ft 465 kts 259°
2026-05-07 15:47 51.04303 -43.78955 41260 ft 465 kts 259°
2026-05-07 15:47 51.02913 -43.88983 41264 ft 465 kts 259°
2026-05-07 15:48 51.01525 -43.98938 41260 ft 465 kts 259°
2026-05-07 15:48 51.00118 -44.08959 41261 ft 465 kts 259°
2026-05-07 15:49 50.98702 -44.18973 41262 ft 465 kts 259°
2026-05-07 15:49 50.97279 -44.28978 41266 ft 465 kts 259°
2026-05-07 15:50 50.95847 -44.38980 41256 ft 464 kts 258°
2026-05-07 15:50 50.94410 -44.48945 41256 ft 463 kts 258°
2026-05-07 15:51 50.92963 -44.58911 41253 ft 463 kts 258°
2026-05-07 15:51 50.91510 -44.68864 41268 ft 463 kts 258°
2026-05-07 15:52 50.90047 -44.78815 41254 ft 464 kts 258°
2026-05-07 15:52 50.88574 -44.88772 41262 ft 463 kts 258°
2026-05-07 15:53 50.87095 -44.98703 41260 ft 463 kts 258°
2026-05-07 15:53 50.85618 -45.08566 41260 ft 463 kts 258°
2026-05-07 15:54 50.84122 -45.18488 41262 ft 463 kts 258°
2026-05-07 15:54 50.82615 -45.28421 41270 ft 463 kts 258°
2026-05-07 15:55 50.81105 -45.38313 41258 ft 462 kts 257°
2026-05-07 15:55 50.79590 -45.48174 41264 ft 461 kts 257°
2026-05-07 15:56 50.78069 -45.58018 41263 ft 461 kts 257°
2026-05-07 15:56 50.76539 -45.67855 41264 ft 461 kts 257°
2026-05-07 15:57 50.75013 -45.77613 41262 ft 461 kts 257°
2026-05-07 15:57 50.73467 -45.87442 41254 ft 461 kts 257°
2026-05-07 15:58 50.71910 -45.97278 41262 ft 461 kts 257°
2026-05-07 15:58 50.70346 -46.07094 41260 ft 461 kts 257°
2026-05-07 15:59 50.68775 -46.16904 41260 ft 461 kts 256°
2026-05-07 15:59 50.67205 -46.26648 41260 ft 461 kts 256°
2026-05-07 16:00 50.65618 -46.36437 41262 ft 460 kts 256°
2026-05-07 16:00 50.64023 -46.46218 41260 ft 460 kts 256°
2026-05-07 16:01 50.62423 -46.55974 41262 ft 460 kts 256°
2026-05-07 16:01 50.60825 -46.65665 41260 ft 460 kts 256°
2026-05-07 16:02 50.59208 -46.75413 41257 ft 460 kts 255°
2026-05-07 16:02 50.57581 -46.85165 41252 ft 460 kts 255°
2026-05-07 16:03 50.55949 -46.94895 41251 ft 460 kts 255°
2026-05-07 16:03 50.54309 -47.04615 41252 ft 459 kts 255°
2026-05-07 16:04 50.52661 -47.14325 41252 ft 459 kts 255°
2026-05-07 16:04 50.51011 -47.24000 41249 ft 457 kts 255°
2026-05-07 16:05 50.49370 -47.33567 41250 ft 455 kts 255°
2026-05-07 16:05 50.47714 -47.43163 41250 ft 455 kts 255°
2026-05-07 16:06 50.46052 -47.52742 41246 ft 455 kts 255°
2026-05-07 16:06 50.44380 -47.62331 41243 ft 455 kts 255°
2026-05-07 16:07 50.42702 -47.71903 41243 ft 455 kts 255°
2026-05-07 16:07 50.41014 -47.81475 41244 ft 455 kts 254°
2026-05-07 16:08 50.39319 -47.91045 41243 ft 455 kts 254°
2026-05-07 16:08 50.37619 -48.00584 41243 ft 454 kts 254°
2026-05-07 16:09 50.35923 -48.10053 41260 ft 454 kts 254°
2026-05-07 16:09 50.34210 -48.19565 41243 ft 452 kts 253°
2026-05-07 16:10 50.32498 -48.29026 41237 ft 452 kts 253°
2026-05-07 16:10 50.30777 -48.38482 41237 ft 452 kts 253°
2026-05-07 16:11 50.29048 -48.47938 41240 ft 452 kts 253°
2026-05-07 16:11 50.27312 -48.57378 41241 ft 452 kts 253°
2026-05-07 16:12 50.25571 -48.66803 41235 ft 452 kts 253°
2026-05-07 16:12 50.23829 -48.76179 41235 ft 452 kts 253°
2026-05-07 16:13 50.22072 -48.85595 41233 ft 451 kts 253°
2026-05-07 16:13 50.20307 -48.95004 41236 ft 450 kts 253°
2026-05-07 16:14 50.18540 -49.04375 41230 ft 449 kts 252°
2026-05-07 16:14 50.16779 -49.13674 41226 ft 445 kts 252°
2026-05-07 16:15 50.15017 -49.22923 41243 ft 444 kts 252°
2026-05-07 16:15 50.13250 -49.32155 41219 ft 444 kts 252°
2026-05-07 16:16 50.11476 -49.41381 41232 ft 445 kts 252°
2026-05-07 16:16 50.09703 -49.50552 41232 ft 445 kts 252°
2026-05-07 16:17 50.07909 -49.59793 41236 ft 445 kts 252°
2026-05-07 16:17 50.06109 -49.69019 41234 ft 445 kts 252°
2026-05-07 16:18 50.04314 -49.78173 41228 ft 445 kts 252°
2026-05-07 16:18 50.02502 -49.87378 41221 ft 445 kts 252°
2026-05-07 16:19 50.00986 -49.95038 41225 ft 445 kts 252°
2026-05-07 16:19 49.99121 -50.04235 41219 ft 445 kts 250°
2026-05-07 16:20 49.96589 -50.14696 41217 ft 445 kts 248°
2026-05-07 16:20 49.94708 -50.22204 41216 ft 445 kts 248°
2026-05-07 16:21 49.92510 -50.31129 41215 ft 445 kts 248°
2026-05-07 16:21 49.90323 -50.40114 41217 ft 445 kts 248°
2026-05-07 16:22 49.88137 -50.49095 41214 ft 445 kts 248°
2026-05-07 16:22 49.85943 -50.58066 41211 ft 445 kts 248°
2026-05-07 16:23 49.83741 -50.67027 41214 ft 445 kts 248°
2026-05-07 16:23 49.81533 -50.75977 41214 ft 445 kts 248°
2026-05-07 16:24 49.79318 -50.84913 41211 ft 444 kts 248°
2026-05-07 16:24 49.77099 -50.93835 41198 ft 443 kts 247°
2026-05-07 16:25 49.74879 -51.02725 41198 ft 442 kts 247°
2026-05-07 16:25 49.72657 -51.11582 41195 ft 442 kts 247°
2026-05-07 16:26 49.70444 -51.20375 41197 ft 442 kts 247°
2026-05-07 16:26 49.68208 -51.29222 41192 ft 442 kts 246°
2026-05-07 16:27 49.65968 -51.38051 41184 ft 442 kts 246°
2026-05-07 16:27 49.63718 -51.46882 41191 ft 442 kts 246°
2026-05-07 16:28 49.61462 -51.55703 41190 ft 442 kts 246°
2026-05-07 16:28 49.59200 -51.64517 41188 ft 442 kts 246°
2026-05-07 16:29 49.56943 -51.73275 41176 ft 442 kts 246°
2026-05-07 16:29 49.54667 -51.82068 41177 ft 442 kts 246°
2026-05-07 16:30 49.52385 -51.90859 41185 ft 442 kts 245°
2026-05-07 16:30 49.50105 -51.99606 41171 ft 440 kts 245°
2026-05-07 16:31 49.47886 -52.08374 41163 ft 440 kts 246°
2026-05-07 16:31 49.45730 -52.17178 41160 ft 440 kts 246°
2026-05-07 16:32 49.43565 -52.25970 41161 ft 440 kts 246°
2026-05-07 16:32 49.41394 -52.34687 41157 ft 440 kts 246°
2026-05-07 16:33 49.39199 -52.43446 41155 ft 440 kts 246°
2026-05-07 16:33 49.36995 -52.52203 41144 ft 440 kts 246°